Regional Weather Roundup
Issued by NWS

Home | Current Version | Previous Version | Text Only | Print | Product List | Glossary Off
Versions: 1 2 3 4 5 6 7 8 9 10 11 12 13 14 15 16 17 18 19 20 21 22 23 24 25 26 27 28 29 30 31 32 33 34 35 36 37 38 39 40 41 42 43 44 45 46 47 48 49 50

000
ASUS43 KLOT 300208
RWRIL

ILLINOIS REGIONAL WEATHER ROUNDUP
NATIONAL WEATHER SERVICE CHICAGO/ROMEOVILLE IL
900 PM CDT SUN MAY 29 2016

NOTE: "FAIR" INDICATES FEW OR NO CLOUDS BELOW 12,000 FEET WITH NO
SIGNIFICANT WEATHER AND/OR OBSTRUCTIONS TO VISIBILITY.

* THESE STATIONS ARE NOT UNDER NWS QUALITY CONTROL. THEY ALSO MAY NOT
  REPORT WEATHER SUCH AS PRECIPITATION OR FOG.

ILZ001-002-007-009-015-016-024-300300-
NORTHWEST ILLINOIS

CITY           SKY/WX    TMP DP  RH WIND       PRES   REMARKS
MOLINE         CLEAR     73  57  57 SW6       30.00R
STERLING*      CLEAR     69  59  70 CALM      30.00S
SAVANNA*       CLEAR     67  63  86 SE3       29.99S
$$

ILZ003-004-008-010-011-017-018-300300-
NORTH CENTRAL ILLINOIS

CITY           SKY/WX    TMP DP  RH WIND       PRES   REMARKS
ROCKFORD       PTCLDY    73  57  57 SW3       30.00S
FREEPORT*      MOCLDY    71  58  64 SW8       30.01S
ROCHELLE*      CLEAR     68  61  76 SW3       30.01R
DE KALB*       CLEAR     71  58  63 W8        30.01R
$$

ILZ005-006-012>014-019>023-300300-
NORTHEAST ILLINOIS

CITY           SKY/WX    TMP DP  RH WIND       PRES   REMARKS
CHICAGO-OHARE  PTCLDY    73  57  57 W5        29.98S
CHICAGO-MIDWAY PTCLDY    75  56  51 W6        29.98S
AURORA         CLEAR     73  60  63 SW6       30.00S
LANSING*       CLEAR     73  55  52 W5        29.99S
JOLIET*        CLEAR     71  60  67 CALM      30.00R
WAUKEGAN       CLEAR     70  57  63 CALM      29.96S
DUPAGE AIRPORT CLEAR     70  57  63 SW7       29.98S
KANKAKEE*      CLEAR     74  56  52 CALM      30.01S
WHEELING       CLEAR     75  56  51 SW5       29.98S
MORRIS*        CLEAR     73  56  53 CALM      29.99R
ROMEOVILLE*    CLEAR     72  54  54 W6        30.00R
NORTHERLY ISL    N/A     77  54  44 SW6         N/A
NORTHERLY ISL    N/A     77  54  44 SW6         N/A
$$

LMZ740>746-300300-
SOUTHERN LAKE MICHIGAN

STATION/POSITION SKY/WX   TEMP    WIND        PRES    VSBY  WAVE
                          AIR SEA DIR/SP/G                  HT/PER
                          (F)     (DEG/KT/KT) (MB)    (MI)  (FT/S)
SOUTHERN BUOY              57 51  220/  8/ 10 1014.0R         1
WILMETTE HARBOR            66 53  270/  6/  6   N/A           1
HARRISON CRIB              78     250/ 14/ 16   N/A
BURNHAM HARBOR             76     260/  6/ 10   N/A
CALUMET HARBOR                                1014.8S
BURNS HARBOR               68     270/ 10/ 12 1015.6F
MICHIGAN CITY              69     220/  9/ 11   N/A
MICHIGAN CITY 6N           62 59  220/  4/  6   N/A           1
ST. JOSEPH                 63 62  210/  6/  6   N/A           1/ 3
$$

ILZ025>027-034>036-040-047-049-050-058-095>099-300300-
WEST-CENTRAL ILLINOIS

CITY           SKY/WX    TMP DP  RH WIND       PRES   REMARKS
QUINCY         CLOUDY    74  64  71 CALM      30.04R
GALESBURG*     CLEAR     71  58  64 CALM      30.03R
MACOMB*        CLEAR     72  61  67 SW3       30.05R
JACKSONVILLE*  CLOUDY    74  60  60 CALM      30.04R
PITTSFIELD*    CLOUDY    75  64  66 SW3       30.06R
$$

ILZ028>032-037-038-041>044-048-051>054-059>061-300300-
CENTRAL ILLINOIS

CITY           SKY/WX    TMP DP  RH WIND       PRES   REMARKS
PONTIAC        CLEAR     74  58  55 W3        30.01S
BLOOMINGTON    CLEAR     74  62  66 W6        30.04S
DECATUR        CLEAR     76  55  48 NW5       30.03R
PEORIA         CLEAR     72  56  57 CALM      30.02S
LACON*         CLEAR     69  58  66 CALM      30.00S
LINCOLN*       CLEAR     75  61  61 CALM      30.02S
SPRINGFIELD    CLEAR     72  60  66 CALM      30.03S
TAYLORVILLE    CLEAR     72  58  60 W3        30.04R
$$

ILZ033-039-045-046-055>057-062-063-300300-
EAST-CENTRAL ILLINOIS

CITY           SKY/WX    TMP DP  RH WIND       PRES   REMARKS
CHAMPAIGN      CLEAR     73  57  57 NW8       30.03S
RANTOUL*       CLEAR     74  60  59 W5        30.02S
MATTOON        CLOUDY    72  53  51 W5        30.02S
PARIS*         CLOUDY    71  58  62 CALM      30.02S
$$

ILZ079-100>102-300300-
SOUTHWEST ILLINOIS

CITY           SKY/WX    TMP DP  RH WIND       PRES   REMARKS
CAHOKIA*       CLEAR     75  59  57 CALM      30.04R
SPARTA*        MOCLDY    76  64  65 CALM      30.06R
$$

ILZ064>066-069>071-074>076-080>082-084>086-088>090-092>094-300300-
SOUTH-CENTRAL ILLINOIS

CITY           SKY/WX    TMP DP  RH WIND       PRES   REMARKS
CARBONDALE     MOCLDY    71  64  78 CALM      30.04F
CAIRO*         CLOUDY    73  67  79 CALM      30.04S
EFFINGHAM*     PTCLDY    72  65  78 CALM      30.04S
MARION         CLOUDY    70  66  88 CALM      30.05S
MT. VERNON     PTCLDY    70  63  78 CALM      30.05S
CENTRALIA*     MOCLDY    73  66  78 SW3       30.04R
SALEM*         PTCLDY    74  65  72 CALM      30.03F
METROPOLIS*    CLOUDY    73  69  86 CALM      30.04S
$$

ILZ067-068-072-073-078-083-087-091-300300-
SOUTHEAST ILLINOIS

CITY           SKY/WX    TMP DP  RH WIND       PRES   REMARKS
LAWRENCEVILLE  CLEAR     75  61  61 W6        30.02S
FLORA*         CLEAR     75  66  73 SW5       30.04S
FAIRFIELD*     PTCLDY    70  65  83 CALM      30.03S
HARRISBURG*    CLOUDY    75  63  66 CALM      30.04S
ROBINSON*      CLEAR     71  62  72 W7        30.02S
CARMI*         CLEAR     72  64  75 W5        30.03R
$$

ABBREVIATIONS USED IN REMARKS
   TC - TEMPERATURE IN CELSIUS
  WCI - WIND CHILL INDEX
   HX - HEAT INDEX
  VSB - VISIBILITY
$$





USA.gov is the U.S. government's official web portal to all federal, state and local government web resources and services.